Location: Canet
(43.3261°N, 5.3723°E)
Time: 19:19:26
(UTC+00:00)

Envisat - Pass Details

Date: 02 October 2021
Orbit: 764 x 766 km, 98.2° (Epoch: 27 October)

Event Time Altitude Azimuth Distance (km) Brightness Sun altitude
Rises 04:36:38 0° 16° (NNE) 3,241 6.5 -11.8°
Reaches altitude 10° 04:38:58 10° 19° (NNE) 2,310 5.8 -11.4°
Maximum altitude 04:44:02 64° 101° (E) 844 3.5 -10.5°
Drops below altitude 10° 04:49:03 10° 183° (S) 2,293 5.4 -9.6°
Sets 04:51:21 0° 187° (S) 3,214 6.1 -9.1°
